[[{"header":{"parameterUnit":"m.s-1","parameterCategory":1,"la1":30.2991,"la2":30.254,"lo1":-89.0895,"lo2":-89.0444,"dx":0.0017,"dy":0.0017,"nx":28,"ny":28,"refTime":"2023-01-27T09:00:00:Z","depth":0,"parameterNumber":2,"parameterNumberName":"U-component_of_WINDS"},"data":[0,0,0,0,0,0,0,0,0,0,0,0,0,0,0,0,0,0,0,0,0,0,0,0,0,0,0,0,0,0,0,0,0,0,0,0,0,0,0,0,0,0,0,0,0,0,0,0,0,0,0,0,0,0,0,0,0,0,-6.6373,-6.6375,0,-6.6486,-6.6487,-6.6488,-6.6476,-6.6475,-6.6473,-6.6471,-6.658,-6.6585,-6.6589,0,0,0,0,0,0,0,0,0,0,0,0,0,-6.6146,-6.615,-6.6373,-6.6375,-6.6376,-6.6485,-6.6487,-6.6488,-6.6477,-6.6475,-6.6472,-6.647,-6.6579,-6.6584,-6.659,0,0,0,0,0,0,0,0,0,0,0,0,0,-6.625,-6.6151,-6.6373,-6.6384,-6.6386,-6.6485,-6.6487,-6.6489,-6.6477,-6.6475,-6.6472,-6.6469,-6.6577,-6.6584,-6.659,-6.6685,0,0,-6.6611,-6.6614,0,0,0,0,0,0,0,0,-6.6244,-6.6258,-6.6381,-6.6383,-6.6386,-6.6464,-6.6447,-6.6554,-6.6478,-6.6442,-6.6471,-6.6468,-6.6544,-6.6553,-6.658,-6.669,-6.6695,-6.6612,-6.6616,-6.6619,-6.6621,0,0,0,0,0,0,0,-6.6237,-6.6253,-6.6418,-6.6382,-6.6385,-6.6382,-6.6394,-6.6467,-6.6506,-6.6445,-6.6445,-6.6458,-6.6544,-6.6573,-6.6582,-6.6696,-6.6612,-6.6618,-6.6622,-6.6625,-6.6891,-6.6894,0,0,0,0,0,0,-6.6228,-6.6247,-6.6414,-6.6421,-6.6307,-6.6388,-6.6401,-6.6442,-6.6505,-6.6513,-6.646,-6.6457,-6.6563,-6.6574,-6.6586,-6.67,-6.6619,-6.6625,-6.6629,-6.6888,-6.6892,-6.6895,0,0,0,0,0,0,-6.6223,-6.6243,-6.6409,-6.6334,-6.6355,-6.6395,-6.644,-6.6445,-6.6474,-6.6517,-6.6523,-6.6483,-6.6561,-6.6576,-6.6661,-6.6704,-6.6628,-6.6634,-6.6884,-6.6889,-6.6893,-6.6929,0,0,0,0,0,0,-6.6216,-6.6241,-6.6277,-6.6335,-6.6359,-6.6483,-6.6443,-6.6449,-6.6486,-6.6483,-6.6539,-6.6546,-6.656,-6.6651,-6.6668,-6.6712,-6.664,-6.6881,-6.6886,-6.6892,-6.6924,-6.6934,-6.6943,0,0,0,0,0,-6.6208,-6.6282,-6.6279,-6.6299,-6.6406,-6.6486,-6.65,-6.6516,-6.649,-6.6526,-6.6555,-6.6544,-6.6698,-6.666,-6.6679,-6.6725,-6.6878,-6.6885,-6.6891,-6.692,-6.6932,-6.6943,0,0,0,0,0,0,-6.6225,-6.6289,-6.6287,-6.6382,-6.6429,-6.6484,-6.653,-6.6528,-6.6582,-6.6576,-6.6593,-6.6606,-6.6691,-6.6717,-6.6674,-6.6821,-6.6784,-6.6795,-6.6799,-6.6812,-6.6821,-6.6811,-6.6645,0,0,0,0,0,-6.624,-6.6301,-6.6354,-6.6432,-6.6456,-6.649,-6.6525,-6.6534,-6.6582,-6.6601,-6.6636,-6.6682,-6.674,-6.6778,-6.6834,-6.693,-6.6941,-6.6972,-6.6981,-6.6989,-6.6996,-6.7049,-6.7062,-6.6917,-6.6917,-6.6917,0,0,-6.6271,-6.6314,-6.6351,-6.6437,-6.6474,-6.6536,-6.6506,-6.6572,-6.6617,-6.6611,-6.6693,-6.672,-6.6773,-6.6864,-6.6905,-6.6888,-6.704,-6.6997,-6.7003,-6.7006,-6.7057,-6.7071,-6.7083,-6.6921,-6.6921,-6.692,0,0,-6.6358,-6.6398,-6.6467,-6.6507,-6.6565,-6.6587,-6.6605,-6.6661,-6.668,-6.6763,-6.676,-6.6815,-6.6915,-6.6953,-6.6985,-6.7092,-6.7084,-6.711,-6.7157,-6.7208,-6.7219,-6.723,-6.7266,-6.7279,-6.7119,-6.7119,-6.7119,0,-6.6387,-6.6482,-6.6503,-6.657,-6.6608,-6.6609,-6.6679,-6.6716,-6.6789,-6.6814,-6.6795,-6.6923,-6.6959,-6.7058,-6.7085,-6.7112,-6.713,-6.7101,-6.7217,-6.7227,-6.7237,-6.7271,-6.7285,-6.7121,-6.7121,-6.7121,-6.7121,0,-6.6515,-6.6581,-6.663,-6.6703,-6.6747,-6.6815,-6.6846,-6.6888,-6.6895,-6.6919,-6.7005,-6.7049,-6.7114,-6.714,-6.7146,-6.7241,-6.7228,-6.7213,-6.7176,-6.7253,-6.7285,-6.7299,-6.7125,-6.7124,-6.7123,-6.7123,0,0,-6.661,-6.6698,-6.6715,-6.6749,-6.6816,-6.6866,-6.6936,-6.7002,-6.7037,-6.7089,-6.7146,-6.7234,-6.7221,-6.7258,-6.7269,-6.7315,-6.7395,-6.7294,-6.7295,-6.7309,-6.7501,-6.7509,-6.7524,-6.7393,-6.7395,-6.7397,-6.7496,0,-6.6701,-6.6825,-6.6848,-6.6955,-6.7016,-6.702,-6.7081,-6.7128,-6.7154,-6.7208,-6.7237,-6.7298,-6.7278,-6.73,-6.7346,-6.7375,-6.7433,-6.7369,-6.7443,-6.7446,-6.7426,-6.7542,-6.755,-6.764,-6.7509,-6.7511,-6.7513,0,-6.6823,-6.688,-6.6994,-6.7055,-6.7081,-6.7135,-6.7199,-6.7252,-6.7306,-6.7322,-6.7366,-6.7373,-6.7445,-6.7409,-6.7507,-6.7463,-6.7496,-6.7515,-6.7519,-6.7523,-6.748,-6.7546,-6.767,-6.7682,-6.7533,-6.7532,-6.753,0,-6.6877,-6.6984,-6.7066,-6.7095,-6.7169,-6.7207,-6.7239,-6.7291,-6.733,-6.7386,-6.7412,-6.7475,-6.7509,-6.7557,-6.7581,-6.7553,-6.7677,-6.7643,-6.769,-6.769,-6.7712,-6.7709,-6.784,-6.774,-6.774,-6.7739,-6.7739,0,-6.6974,-6.7043,-6.7092,-6.7142,-6.7219,-6.7246,-6.7322,-6.7354,-6.7401,-6.7456,-6.7465,-6.7517,-6.7547,-6.7603,-6.7623,-6.7701,-6.7716,-6.773,-6.7733,-6.7727,-6.7725,-6.7745,-6.7738,-6.7743,-6.7742,-6.7741,-6.7741,0,-6.7046,-6.7082,-6.7171,-6.7236,-6.7254,-6.7308,-6.7362,-6.741,-6.7439,-6.7509,-6.7527,-6.7571,-6.7638,-6.7668,-6.775,-6.7764,-6.7851,-6.7852,-6.7833,-6.7833,-6.7878,-6.7872,-6.8022,-6.8043,-6.7933,-6.7934,-6.7934,0,-6.7103,-6.7157,-6.7228,-6.7268,-6.7302,-6.7364,-6.7405,-6.7436,-6.7478,-6.7546,-6.7586,-6.7654,-6.7709,-6.7816,-6.7854,-6.7917,-6.7918,-6.7967,-6.7927,-6.7919,-6.7915,-6.791,-6.7915,-6.7972,-6.7973,-6.7974,-6.7974,0,-6.7201,-6.7217,-6.7277,-6.7345,-6.7394,-6.7448,-6.7501,-6.7532,-6.7571,-6.7618,-6.7688,-6.7731,-6.7817,-6.7884,-6.7951,-6.7982,-6.7984,-6.7988,-6.8001,-6.7993,-6.7979,-6.7985,-6.7849,-6.7983,-6.7982,-6.7981,-6.7981,-6.798,-6.7265,-6.7313,-6.7372,-6.7439,-6.7483,-6.7533,-6.7582,-6.7619,-6.7678,-6.7751,-6.7766,-6.784,-6.7895,-6.7985,-6.802,-6.8078,-6.8066,-6.8086,-6.8091,-6.8095,-6.8096,-6.7974,-6.8091,-6.809,-6.809,-6.809,-6.809,0,-6.7361,-6.74,-6.7462,-6.7537,-6.759,-6.7593,-6.7652,-6.7695,-6.7761,-6.7814,-6.787,-6.795,-6.8017,-6.8062,-6.8129,-6.8166,-6.8169,-6.8182,-6.8178,-6.8185,-6.8104,-6.8084,-6.8179,-6.8179,-6.8179,-6.8179,-6.8179,-6.8179,-6.7416,-6.7498,-6.7522,-6.7626,-6.7664,-6.7738,-6.7772,-6.7818,-6.786,-6.7951,-6.8007,-6.8038,-6.8087,-6.8159,-6.8219,-6.8231,-6.8254,-6.8267,-6.8278,-6.82,-6.8191,-6.8181,-6.8163,-6.8273,-6.8273,-6.8354,-6.8354,-6.8355]},{"header":{"parameterUnit":"m.s-1","parameterCategory":1,"la1":30.2991,"la2":30.254,"lo1":-89.0895,"lo2":-89.0444,"dx":0.0017,"dy":0.0017,"nx":28,"ny":28,"refTime":"2023-01-27T09:00:00:Z","depth":0,"parameterNumber":3,"parameterNumberName":"V-component_of_WINDS"},"data":[0,0,0,0,0,0,0,0,0,0,0,0,0,0,0,0,0,0,0,0,0,0,0,0,0,0,0,0,0,0,0,0,0,0,0,0,0,0,0,0,0,0,0,0,0,0,0,0,0,0,0,0,0,0,0,0,0,0,2.8576,2.8577,0,2.8631,2.8631,2.8632,2.8705,2.8707,2.8708,2.8709,2.8759,2.8759,2.8759,0,0,0,0,0,0,0,0,0,0,0,0,0,2.8533,2.8533,2.8576,2.8577,2.8577,2.8631,2.8631,2.8632,2.8705,2.8707,2.8708,2.871,2.8759,2.8759,2.8759,0,0,0,0,0,0,0,0,0,0,0,0,0,2.8565,2.8533,2.8576,2.862,2.8625,2.863,2.8631,2.8632,2.8705,2.8707,2.8709,2.871,2.8759,2.8759,2.8759,2.8724,0,0,2.876,2.876,0,0,0,0,0,0,0,0,2.8564,2.8567,2.8613,2.8617,2.8623,2.8663,2.8634,2.8663,2.8704,2.8674,2.8709,2.8711,2.8725,2.8728,2.8734,2.8726,2.8728,2.876,2.876,2.876,2.8761,0,0,0,0,0,0,0,2.8561,2.8565,2.8598,2.8614,2.8619,2.8637,2.8644,2.864,2.8688,2.8677,2.8683,2.8688,2.8728,2.8734,2.8736,2.8729,2.876,2.876,2.8761,2.8761,2.8698,2.8696,0,0,0,0,0,0,2.8553,2.8563,2.8596,2.8599,2.8597,2.8636,2.8644,2.8648,2.8689,2.8697,2.8687,2.8692,2.8733,2.8736,2.8738,2.8702,2.876,2.8761,2.8761,2.87,2.8697,2.8695,0,0,0,0,0,0,2.8552,2.8555,2.8594,2.8583,2.8589,2.8635,2.8639,2.8648,2.8654,2.8696,2.8705,2.8684,2.8734,2.8738,2.8728,2.8704,2.8761,2.8761,2.8702,2.8699,2.8696,2.8627,0,0,0,0,0,0,2.855,2.8554,2.8542,2.8582,2.8589,2.8583,2.8638,2.8648,2.8655,2.8662,2.8696,2.8703,2.8736,2.8727,2.8728,2.8706,2.8761,2.8704,2.87,2.8697,2.8631,2.8622,2.8614,0,0,0,0,0,2.8548,2.8518,2.8541,2.8544,2.8575,2.8582,2.8586,2.8626,2.8653,2.8641,2.8668,2.8702,2.8707,2.8726,2.8727,2.8705,2.8706,2.8701,2.8697,2.8635,2.8624,2.8614,0,0,0,0,0,0,2.8471,2.8524,2.8549,2.8531,2.8552,2.8594,2.858,2.8612,2.8623,2.8629,2.8676,2.8683,2.8668,2.8685,2.8705,2.8674,2.8711,2.8707,2.8664,2.8653,2.8644,2.8641,2.8761,0,0,0,0,0,2.8452,2.8455,2.85,2.848,2.8489,2.8532,2.8537,2.8567,2.8589,2.8597,2.8624,2.8643,2.8649,2.8652,2.8659,2.8634,2.8644,2.862,2.8611,2.8603,2.86,2.859,2.8581,2.8682,2.8682,2.8682,0,0,2.8412,2.8442,2.844,2.8465,2.8484,2.8486,2.8539,2.8537,2.8539,2.8596,2.859,2.861,2.8635,2.8618,2.8612,2.8632,2.8574,2.8598,2.8592,2.8592,2.8585,2.8576,2.8567,2.8679,2.868,2.868,0,0,2.8341,2.8363,2.835,2.837,2.8399,2.8429,2.8426,2.8464,2.8481,2.8476,2.852,2.8522,2.853,2.8548,2.8557,2.8496,2.8529,2.8497,2.8452,2.8442,2.8434,2.8427,2.8408,2.84,2.8493,2.8493,2.8493,0,2.8288,2.8293,2.8339,2.8336,2.8347,2.8402,2.8389,2.8405,2.8434,2.844,2.8462,2.8478,2.8497,2.8487,2.8473,2.8478,2.8476,2.8494,2.8432,2.8426,2.842,2.8402,2.8394,2.8489,2.8489,2.849,2.849,0,2.8227,2.823,2.8216,2.8247,2.8256,2.8248,2.8292,2.8295,2.8325,2.8352,2.8347,2.8374,2.8389,2.8389,2.8416,2.8383,2.8395,2.8423,2.8462,2.8406,2.839,2.8383,2.8483,2.8485,2.8486,2.8487,0,0,2.8108,2.8167,2.8161,2.8177,2.8216,2.8218,2.8213,2.8231,2.8234,2.8253,2.8251,2.8259,2.8287,2.8298,2.8328,2.8319,2.8272,2.835,2.8351,2.8336,2.824,2.8219,2.8211,2.8294,2.8293,2.8292,2.8239,0,2.8046,2.8043,2.8085,2.807,2.8075,2.8128,2.8124,2.8147,2.8173,2.818,2.8208,2.8214,2.8249,2.8257,2.8251,2.8279,2.8254,2.8283,2.8293,2.8292,2.8286,2.8202,2.8179,2.8128,2.8233,2.8232,2.8231,0,2.7972,2.7991,2.7977,2.802,2.8023,2.8019,2.8041,2.8047,2.8074,2.8094,2.8108,2.8143,2.8141,2.8178,2.8176,2.8196,2.8202,2.8216,2.8216,2.8219,2.8259,2.8204,2.8112,2.8105,2.8221,2.8222,2.8222,0,2.7889,2.7911,2.7907,2.7918,2.7967,2.7963,2.7983,2.8013,2.8022,2.804,2.8046,2.8063,2.8072,2.8084,2.8123,2.8145,2.8117,2.8157,2.8134,2.8133,2.8126,2.8126,2.8035,2.8127,2.8127,2.8128,2.8128,0,2.7816,2.7806,2.7871,2.7868,2.7859,2.7908,2.7897,2.7922,2.7948,2.7951,2.7997,2.7999,2.8049,2.8056,2.8086,2.8082,2.8085,2.8101,2.8109,2.8098,2.8096,2.8103,2.8108,2.8126,2.8126,2.8126,2.8127,0,2.7722,2.7765,2.7764,2.7812,2.7823,2.7815,2.7855,2.7854,2.7884,2.7887,2.7891,2.7937,2.7948,2.7988,2.8008,2.8028,2.8015,2.803,2.8006,2.8012,2.7988,2.799,2.7899,2.7891,2.7986,2.7986,2.7985,0,2.7674,2.7668,2.7716,2.7723,2.7741,2.775,2.7761,2.7809,2.7818,2.7851,2.7847,2.7862,2.7878,2.7893,2.7927,2.7943,2.796,2.7927,2.7962,2.7952,2.7962,2.7962,2.7963,2.7919,2.7918,2.7917,2.7916,0,2.7584,2.7606,2.7621,2.7643,2.7656,2.7675,2.7697,2.7699,2.7753,2.7761,2.7775,2.7786,2.7809,2.7824,2.7847,2.7866,2.79,2.7905,2.7901,2.789,2.7877,2.7886,2.7987,2.7907,2.7908,2.7909,2.7909,2.7909,2.7512,2.7511,2.7546,2.7561,2.7584,2.7604,2.7607,2.7639,2.7652,2.7676,2.7703,2.7713,2.7743,2.7777,2.7794,2.7803,2.7822,2.7815,2.7814,2.7812,2.7807,2.7875,2.7807,2.7807,2.7808,2.7808,2.7808,0,2.7427,2.7453,2.7467,2.7498,2.751,2.7544,2.7571,2.7579,2.7589,2.7614,2.763,2.7646,2.7662,2.7699,2.7718,2.7718,2.7734,2.7721,2.7722,2.7727,2.7789,2.7791,2.7708,2.7708,2.7708,2.7708,2.7708,2.7708,2.7384,2.7385,2.7411,2.7424,2.7449,2.7463,2.7475,2.7495,2.7516,2.7534,2.7548,2.7573,2.7603,2.7626,2.7642,2.7652,2.7658,2.764,2.7655,2.7712,2.7722,2.7731,2.7734,2.764,2.764,2.7593,2.7593,2.7593]}]]